Regional Weather Roundup
Issued by NWS Pendleton, OR

Home | Current Version | Previous Version | Text Only | Print | Product List | Glossary On
Versions: 1 2 3 4 5 6 7 8 9 10 11 12 13 14 15 16 17 18 19 20 21 22 23 24 25 26 27 28 29 30 31 32 33 34 35 36 37 38 39 40 41 42 43 44 45 46 47 48 49 50
087
ASUS46 KPDT 301010
RWRPDT
PENDLETON REGIONAL WEATHER ROUNDUP
NATIONAL WEATHER SERVICE PENDLETON OREGON
300 AM PDT SAT APR 30 2016

NOTE: FAIR INDICATES FEW OR NO CLOUDS BELOW 12,000 FEET WITH NO
SIGNIFICANT WEATHER AND/OR OBSTRUCTIONS TO VISIBILITY.

# INDICATES UNOFFICIAL STATION AND DATA

WAZ520-301110-
EAST SLOPES OF WASHINGTON CASCADES

CITY            SKY/WX      TMP DP  RH  WIND    PRES   REMARKS
#CLE ELUM HS    N/A         44  35  70  W7      30.12R
#CLE ELUM 2NW   N/A         43  35  73  SW6     N/A
#CLE ELUM LAKE  N/A         40  34  79  CALM    30.17R
#GLENWOOD       N/A         29  27  92  CALM    30.18R
#MANASTASH CYN  N/A         44  30  58  W1      30.11R
#NELSON 3SW     N/A         41  33  73  CALM    30.37S
#NILE           N/A         45  34  65  SW3     29.46R
#TEANAWAY 4NE   N/A         40  36  85  CALM    N/A
#TROUT LAKE 1NE N/A         44  35  70  NW1     30.17R
#TROUT LAKE 1E  N/A         39  33  79  CALM    30.13R
$$

WAZ521-301110-
SIMCOE HIGHLANDS

CITY            SKY/WX      TMP DP  RH  WIND    PRES   REMARKS
#BICKLETON HS   N/A         46  22  38  N8      N/A
#CENTERVILLE 1SWN/A         43  38  82  W7      30.13R
#GOLDENDALE 1NE N/A         39  31  73  S2      N/A
#GOODNOE HILLS  N/A         47  39  74  NW9     30.05R
#LYLE 6NE       N/A         45  41  86  SW3     30.15R
$$

WAZ026-301110-
KITTITAS VALLEY

CITY            SKY/WX      TMP DP  RH  WIND    PRES   REMARKS
ELLENSBURG AP   CLOUDY      50  34  54  NW24G32 30.14R
YTC-OPS AREA    CLOUDY      43  32  65  W26G36  30.12R WCI 33
#ELLENSBURG CWU N/A         48  35  60  NW10    30.08R
#ELLENSBURG 3NE N/A         47  37  68  N10     30.13R
#ELLENSBURG     N/A         51  38  61  NW7     N/A
#ELLENSBURG 1E  N/A         48  N/A N/A NW1     N/A
#KITTITAS 3S    N/A         49  37  63  NW8     30.11R
#THORP 6N       N/A         44  36  73  NW17G37 30.18R WCI 36
$$

WAZ027-301110-
YAKIMA VALLEY

CITY            SKY/WX      TMP DP  RH  WIND    PRES   REMARKS
YAKIMA AIRPORT  CLOUDY      54  31  41  NW9     30.14R
YAKIMA-VAGABOND MOCLDY      52  33  48  N8      30.12R
#GRANDVIEW      N/A         51  34  52  SW2     30.13R
#MABTON         N/A         53  37  54  SW7     30.12S
#NACHES 2SW     N/A         49  34  56  W13G25  30.12R WCI 44
#TERRACE HTS    N/A         52  34  50  N7      30.08R
#TOPPENISH      N/A         52  35  52  NW1     30.04R
#WEST VALLEY    N/A         53  32  45  NW7     30.11R
#W YAKIMA       N/A         52  34  50  W3      30.13R
#WHITE SWAN 5E  N/A         39  33  79  NW3     30.14S
#WILEY CITY 3W  N/A         47  26  44  CALM    30.10R
$$

WAZ028-301110-
LOWER COLUMBIA BASIN...WASHINGTON

CITY            SKY/WX      TMP DP  RH  WIND    PRES   REMARKS
PASCO           CLOUDY      53  37  54  SW5     30.12R
PROSSER AWOS    N/A         52  36  54  SW9     30.15S
RICHLAND AWOS   CLOUDY      54  38  55  SW3     30.12R
#BENTON CITY    N/A         53  36  52  SW10    30.01S
#CONNELL 5N     N/A         48  44  86  CALM    30.09R
#CONNELL 5NW    N/A         48  45  89  CALM    30.06R
#ELTOPIA 6NW    N/A         50  40  68  CALM    29.07R
#KAHLOTUS       N/A         49  43  80  N2      30.10R
#KENNEWICK 3S   N/A         52  39  61  CALM    30.12R
#PATERSON       N/A         50  42  74  NW2     30.12R
#SAGEMOOR 2W    N/A         52  41  66  W2      29.95R
#TOUCHET 2S     N/A         53  40  61  SW8     30.09S
#WEST PASCO     N/A         54  38  55  CALM    30.19R
$$

WAZ029-301110-
FOOTHILLS OF THE BLUES...WASHINGTON

CITY            SKY/WX      TMP DP  RH  WIND    PRES   REMARKS
WALLA WALLA AP  CLOUDY      50  40  68  S9      30.13R
#CLYDE 6NW      N/A         48  43  83  NW1     30.11R
#DAYTON SCHOOL  N/A         49  37  63  S2      30.12R
#LOWDEN 2SE     N/A         52  43  71  CALM    30.09R
#PLEASANT VIEW 1N/A         46  43  89  S3      30.15R
#PRESCOTT       N/A         49  44  83  CALM    30.10R
#SUDBURY        N/A         57  N/A N/A CALM    N/A
#WHITMAN COLLEGEN/A         51  42  71  SE3     30.18R
#WAITSBURG 5S   N/A         47  41  79  S9      30.22R
#WAITSBURG 8N   N/A         47  24  40  S6      30.00R
#WALLA WALLA U  N/A         52  43  71  CALM    30.13R
#WHITMAN MISSIONN/A         52  44  74  CALM    30.14R
$$

WAZ030-301110-
BLUE MOUNTAINS...WASHINGTON

CITY            SKY/WX      TMP DP  RH  WIND    PRES   REMARKS
#DIXIE 5SE      N/A         43  40  89  S10     30.04R
$$

ORZ009-041-WAZ024-301110-
COLUMBIA RIVER GORGE

CITY            SKY/WX      TMP DP  RH  WIND    PRES   REMARKS
HOOD RIVER AP   PTCLDY      50  43  77  SW3     30.21R
THE DALLES AP   CLEAR       54  40  59  NW7     30.18R
#ARLINGTON AIRPON/A         49  39  68  W3      30.16R
#CELILO DOT     N/A         54  40  59  SW6     N/A
#MARYHILL 2W    N/A         53  39  59  N2      N/A
#MOSIER 1S      N/A         51  32  48  W3      30.18R
#MURDOCK        N/A         54  44  69  NW20G29 30.15R
#RUFUS DOT      N/A         55  41  59  W18     N/A

$$

ORZ510-301110-
NORTH CENTRAL OREGON

CITY            SKY/WX      TMP DP  RH  WIND    PRES   REMARKS
#ANTELOPE       N/A         31  28  88  NE1     30.09R
#COW CYN RST AREN/A         39  35  85  SW5     N/A
#DUFUR 9E       N/A         44  37  76  W7      30.22R
#GRASS VALLEY   N/A         44  37  76  SW2     N/A
#GRASS VALLEY 1SN/A         40  34  79  W6      30.10R
#KENT DOT       N/A         39  30  70  N8      N/A
#MAUPIN SCHOOL  N/A         45  36  70  CALM    30.22R
#MORO SCHOOL    N/A         46  41  83  W12     30.16R WCI 40
#SHANIKO 5WSW   N/A         37  32  82  S5      N/A
#TYGH VALLEY 2NEN/A         40  35  82  N1      30.18R
#WAPANITIA AIRPON/A         43  37  79  W1      30.19R
#WASCO DOT      N/A         49  41  74  W8      N/A
#WASCO 5NE      N/A         45  39  79  W6      30.15R
$$

ORZ511-301110-
CENTRAL OREGON

CITY            SKY/WX      TMP DP  RH  WIND    PRES   REMARKS
BEND AIRPORT    CLOUDY      34  30  85  CALM    30.19R
MADRAS AIRPORT  CLEAR       34  32  92  SE6     30.22R
PRINEVILLE AP   CLEAR       36  32  85  CALM    30.19R
REDMOND AIRPORT CLEAR       30  27  88  S5      30.19R
#ASHWOOD SCHOOL N/A         36  34  92  CALM    30.15R
#BEND 1SW       N/A         29  27  92  CALM    N/A
#BEND-AWBREY    N/A         36  33  89  CALM    30.20R
#BEND-KIM LN    N/A         34  30  85  S2      30.16R
#CULVER         N/A         34  30  85  CALM    30.18R
#LAKE BILLY CHINN/A         38  N/A N/A CALM    30.26R
#POWELL BUTTE   N/A         36  32  85  SE3     30.04R
#PRINEVILLE 3N  N/A         38  33  82  CALM    30.20S
#WARM SPRINGS   N/A         38  34  85  CALM    30.16R

$$


ORZ509-301110-
EAST SLOPES OF OREGON CASCADES

CITY            SKY/WX      TMP DP  RH  WIND    PRES   REMARKS
SISTERS AWOS    N/A         41  34  76  W8      30.15R
#BLUE BOX PASS  N/A         36  N/A N/A NW3     N/A
#BLACK BUTTE RNCN/A         38  34  85  CALM    30.20R
#CAMP SHERMAN   N/A         29  26  88  CALM    30.29R
#LA PINE 4NW    N/A         26  22  85  CALM    30.25R
#LAVA BUTTE DOT N/A         28  27  96  CALM    N/A
#SISTERS AIRPOR N/A         40  38  92  N2      30.17S
#SISTERS ODOT   N/A         41  N/A N/A S1      N/A
#SISTERS 3N     N/A         32  25  75  CALM    30.17S
#SUNRIVER       N/A         27  25  92  CALM    30.25R
#SUTTLE LK DOT  N/A         34  33  96  N22G32  N/A    WCI 22
#TUMALO 3W      N/A         37  31  79  NW3     30.08R
#WANOGA BUTTE D N/A         32  22  66  CALM    N/A

$$

ORZ044-301110-
LOWER COLUMBIA BASIN...OREGON

CITY            SKY/WX      TMP DP  RH  WIND    PRES   REMARKS
HERMISTON       CLOUDY      52  40  63  SW9     30.13R
#BOARDMAN SCHOOLN/A         51  42  71  SW3     30.14R
#BOARDMAN 8SW   N/A         51  42  71  SW5     30.13R
#ECHO 8SW       N/A         51  40  66  SW3     30.15R
#I-84 EX 198 DOTN/A         51  39  63  E10     N/A
#UMATILLA SCHOOLN/A         48  45  89  CALM    30.13S
#UMATILLA       N/A         50  39  66  CALM    30.07R
$$

ORZ507-301110-
NORTHERN FOOTHILLS OF THE BLUES

CITY            SKY/WX      TMP DP  RH  WIND    PRES   REMARKS
PENDLETON AIRPT CLOUDY      50  36  58  W10     30.13R
#ADAMS 3WNW     N/A         46  40  79  SW2     30.14R
#ATHENA         N/A         47  39  74  CALM    30.16R
#CAYUSE         N/A         49  39  68  SW3     30.13R
#HELIX SCHOOL   N/A         46  40  79  N2      30.13R
#HELIX 3N       N/A         45  39  79  N7      30.09R
#HELIX 6SW      N/A         47  40  76  W1      30.12R
#HOLDMAN 5SE    N/A         47  40  76  CALM    30.12R
#HOLDMAN 6E     N/A         46  39  76  N5      29.94R
#M-F FERNDALE   N/A         51  40  66  CALM    30.12R
#M-F GROVE ELEM N/A         50  38  63  S2      30.10R
#M-FREEWATER 5SEN/A         50  38  63  S1      30.13R
#PENDLETON DNTN N/A         53  34  48  CALM    30.16S
#PDT AQUATIC CTRN/A         52  33  48  CALM    30.14S
#PDT SUNRIDGE   N/A         51  39  63  SW1     30.15R
#PENDLETON 7NW  N/A         50  39  66  W5      27.45S
#PILOT ROCK     N/A         49  35  58  S5      30.14S
#TUTUILLA       N/A         48  40  74  CALM    30.14S
#UMAPINE 2E     N/A         51  43  74  CALM    30.11R
#WESTON SCHOOL  N/A         47  35  63  SW2     30.06R

$$

ORZ508-301110-
SOUTHERN FOOTHILLS OF THE BLUES

CITY            SKY/WX      TMP DP  RH  WIND    PRES   REMARKS
#AJAX           N/A         46  32  58  S8      27.90R
#CONDON SCHOOL  N/A         44  37  76  SW3     30.11R
#CONDON 5W      N/A         38  32  79  W6      30.13R
#FOSSIL SCHOOL  N/A         44  37  76  CALM    30.10S
#HEPPNER EOC    N/A         46  38  73  CALM    30.09R
#HEPPNER 4NE    N/A         43  37  79  SW2     30.15S
#LEXINGTON 2SE  N/A         46  40  79  CALM    30.11S
#RUGGS 5NE      N/A         42  37  82  SW3     30.30S
#RUGGS 2SW      N/A         45  37  73  W9      30.17R

$$

ORZ502-503-301110-
BLUE MOUNTAINS

CITY            SKY/WX      TMP DP  RH  WIND    PRES   REMARKS
MEACHAM         CLOUDY      37  34  89  CALM    30.13R
#BATTLE MTN DOT N/A         38  38  100 N1      N/A
#GREENHORN 9SW  N/A         42  36  79  W1      26.31R
#HARDMAN 10S    N/A         61  34  36  N5      30.22S
#HEPPNER 15SE   N/A         36  35  96  CALM    25.65F
#LADD CYN SMT   N/A         43  32  65  NW10    N/A
#LADD CREEK ODOTN/A         45  21  38  CALM    N/A
#LONG CREEK HS  N/A         42  40  93  CALM    N/A
#N POWDER DOT   N/A         45  37  73  N8      N/A
#PIKES PEAK     N/A         41  35  79  SW17    27.99S WCI 33
#TOLLGATE       N/A         32  31  96  S2      29.95R
#TROY SCHOOL    N/A         48  45  89  CALM    29.96R
#UKIAH          N/A         37  33  85  CALM    30.07R
#WESTON 4E      N/A         41  36  82  S3      30.12S
$$

ORZ505-301110-
JOHN DAY BASIN

CITY            SKY/WX      TMP DP  RH  WIND    PRES   REMARKS
JOHN DAY        CLOUDY      44  37  76  NW5     30.14S
#DAYVILLE SCHOOLN/A         47  35  63  W5      30.11R
#MITCHELL       N/A         44  39  82  CALM    30.31R
#MITCHELL 8NW   N/A         42  33  70  CALM    30.38R
#MONUMENT HS    N/A         49  35  58  NW1     30.14R
#MT. VERNON 5SE N/A         40  35  82  CALM    30.09R
#SPRAY SCHOOL   N/A         49  N/A N/A CALM    N/A
#WINLOCK        N/A         43  35  73  CALM    30.11S
$$

ORZ506-301110-
OCHOCO AND JOHN DAY HIGHLANDS

CITY            SKY/WX      TMP DP  RH  WIND    PRES   REMARKS
#HORSE RIDGE DO N/A         31  29  92  SE3     N/A
#KEYES SMT DOT  N/A         38  32  79  SW17    N/A    WCI 29
#PAULINA SCHOOL N/A         48  34  58  N3      29.35S
#PINE MTN OBS   N/A         29  28  96  N14G24  N/A    WCI 18
#PRAIRIE CITY   N/A         44  37  76  W1      30.10R
#SENECA         N/A         39  N/A N/A N7      N/A
#SENECA 9NW     N/A         38  34  85  CALM    30.13S
$$

ORZ049-301110-
GRANDE RONDE VALLEY

CITY            SKY/WX      TMP DP  RH  WIND    PRES   REMARKS
LA GRANDE       CLOUDY      46  30  53  NW12    30.11R WCI 40
#COVE           N/A         45  42  89  NW3     30.13R
#COVE SCHOOL    N/A         44  39  82  CALM    30.12R
#COVE 6NW       N/A         39  35  85  CALM    29.63S
#ELGIN 3N       N/A         46  35  65  CALM    30.09R
#ELGIN 1E       N/A         46  35  65  CALM    N/A
#ISLAND CITY 4N N/A         44  41  89  CALM    30.30R
#LADD CYN DOT   N/A         47  37  68  N8      N/A
#UNION 1S       N/A         47  37  68  NW8     30.03R
$$

ORZ050-301110-
WALLOWA COUNTY

CITY            SKY/WX      TMP DP  RH  WIND    PRES   REMARKS
JOSEPH AIRPORT  CLOUDY      41  41  100 N3      30.10R
#ENTERPRISE AP  N/A         49  29  46  CALM    30.02R
#ENTERPRISE HS  N/A         42  40  93  CALM    30.11R
#IMNAHA SCHOOL  N/A         48  47  96  CALM    30.09R
#IMNAHA 10S     N/A         44  43  96  CALM    30.07R
#JOSEPH 3N      N/A         40  36  85  NW7     30.10R
#JOSEPH 3W      N/A         38  38  100 CALM    29.91R
#LOSTINE        N/A         42  40  93  CALM    29.92R
#MT HOWARD 8000 N/A         28  27  96  CALM    30.04R
#PROMISE 1S     N/A         42  39  89  CALM    30.22R
#WALLOWA SCHOOL N/A         44  40  86  CALM    30.07R



$$



USA.gov is the U.S. government's official web portal to all federal, state and local government web resources and services.